Dewpoint
-19 -25 -24 -22 -23 -25 -28 -31 -31 -31 -34 -36 -36 -35 -34 -33 -33 -33 -33 -32 -30 -29 -21 -23 -22 -19 -11 -8 -7 -7 -7 -6 -5 -6 -6 -6 -6 -6 -6 -5 -5 -4 -4
-20 -24 -22 -22 -23 -24 -28 -31 -31 -31 -32 -35 -35 -33 -31 -30 -30 -30 -31 -31 -32 -32 -31 -29 -31 -21 -22 -24 -11 -8 -8 -7 -7 -7 -6 -6 -6 -6 -7 -7 -6 -6 -6
-20 -24 -20 -21 -21 -23 -29 -32 -32 -31 -33 -35 -34 -31 -28 -27 -27 -28 -30 -30 -30 -31 -31 -31 -31 -31 -29 -27 -30 -25 -12 -8 -8 -8 -8 -8 -7 -7 -7 -6 -7 -6 -6
-21 -21 -19 -18 -19 -23 -29 -32 -31 -31 -32 -33 -32 -29 -26 -24 -24 -25 -27 -28 -29 -29 -30 -31 -32 -33 -33 -28 -28 -31 -25 -10 -9 -9 -9 -10 -13 -14 -11 -9 -8 -7 -7
-21 -16 -17 -17 -17 -22 -30 -31 -29 -29 -31 -31 -29 -26 -24 -23 -22 -18 -23 -25 -26 -27 -27 -29 -32 -32 -34 -34 -32 -32 -30 -16 -11 -9 -10 -10 -13 -14 -13 -10 -9 -8 -8
-16 -14 -11 -13 -16 -21 -28 -27 -24 -25 -25 -21 -19 -22 -22 -22 -22 -21 -16 -20 -23 -24 -22 -19 -22 -31 -27 -32 -34 -34 -35 -34 -18 -12 -11 -12 -14 -15 -12 -10 -10 -10 -9
-7 -7 -12 -12 -16 -20 -25 -22 -20 -18 -15 -16 -13 -12 -13 -22 -22 -21 -20 -13 -13 -14 -14 -14 -18 -28 -27 -20 -23 -27 -30 -35 -36 -19 -15 -17 -18 -26 -15 -12 -11 -9 -11
-9 -12 -8 -14 -15 -17 -18 -16 -17 -13 -13 -12 -12 -11 -15 -23 -23 -22 -19 -12 -12 -13 -14 -13 -15 -26 -35 -25 -21 -20 -25 -31 -34 -34 -34 -34 -34 -35 -25 -16 -16 -12 -11
-12 -6 -10 -12 -13 -17 -15 -16 -13 -13 -13 -12 -13 -12 -14 -26 -24 -22 -15 -14 -13 -13 -13 -20 -14 -20 -35 -33 -18 -19 -19 -30 -30 -32 -33 -34 -35 -36 -37 -23 -17 -17 -14
-6 -7 -10 -11 -13 -15 -14 -13 -14 -14 -15 -19 -18 -24 -27 -25 -26 -23 -16 -13 -12 -11 -12 -12 -21 -27 -31 -34 -20 -20 -24 -26 -31 -29 -26 -23 -29 -33 -35 -36 -31 -16 -15
-6 -9 -10 -11 -12 -16 -18 -13 -13 -14 -18 -23 -29 -30 -28 -27 -26 -25 -23 -16 -12 -11 -12 -13 -15 -28 -30 -32 -34 -33 -32 -30 -16 -15 -15 -15 -16 -16 -21 -29 -32 -28 -22
-7 -9 -9 -10 -11 -15 -14 -12 -10 -16 -21 -24 -26 -28 -29 -26 -25 -24 -22 -21 -20 -12 -13 -13 -18 -27 -29 -31 -33 -33 -32 -19 -15 -15 -15 -15 -16 -16 -16 -16 -19 -25 -26
-8 -9 -9 -9 -11 -11 -13 -9 -10 -15 -16 -18 -19 -17 -16 -16 -17 -21 -20 -20 -19 -14 -17 -19 -22 -26 -28 -30 -32 -32 -31 -24 -16 -16 -16 -16 -17 -17 -17 -17 -16 -16 -16
-9 -9 -9 -9 -10 -9 -9 -9 -9 -9 -9 -11 -12 -13 -12 -12 -12 -12 -15 -17 -18 -17 -18 -18 -20 -21 -21 -21 -17 -21 -21 -26 -24 -17 -17 -17 -17 -17 -17 -17 -17 -16 -16
-10 -10 -9 -9 -10 -10 -10 -9 -9 -9 -9 -9 -10 -16 -18 -11 -12 -13 -13 -13 -14 -16 -17 -15 -15 -15 -15 -16 -16 -17 -18 -18 -18 -18 -18 -18 -18 -18 -18 -18 -17 -17 -16
-10 -10 -9 -9 -9 -10 -10 -9 -11 -10 -16 -17 -17 -18 -21 -17 -19 -17 -16 -15 -15 -15 -15 -15 -15 -15 -16 -16 -17 -17 -18 -18 -20 -19 -19 -19 -20 -19 -20 -18 -18 -18 -18
-10 -9 -9 -9 -10 -10 -10 -9 -9 -14 -15 -18 -17 -17 -17 -16 -17 -16 -13 -14 -14 -15 -14 -15 -15 -16 -16 -17 -18 -18 -18 -20 -25 -20 -20 -20 -24 -22 -20 -19 -19 -19 -19
-9 -9 -9 -9 -10 -10 -10 -9 -9 -10 -16 -15 -14 -14 -14 -14 -15 -15 -13 -14 -14 -15 -15 -15 -16 -16 -17 -19 -19 -20 -20 -20 -20 -24 -21 -24 -25 -23 -21 -20 -20 -21 -21
-11 -12 -14 -16 -18 -18 -15 -11 -10 -10 -10 -10 -12 -13 -13 -13 -14 -14 -13 -13 -13 -14 -15 -16 -16 -17 -18 -19 -19 -21 -25 -21 -26 -26 -22 -23 -23 -23 -22 -22 -22 -22 -23
-12 -13 -13 -15 -16 -15 -12 -10 -12 -12 -10 -10 -10 -11 -12 -12 -13 -13 -13 -14 -14 -14 -15 -16 -17 -18 -18 -20 -20 -21 -21 -21 -22 -22 -23 -23 -23 -23 -23 -23 -23 -23 -22
-11 -12 -12 -13 -13 -13 -13 -13 -12 -12 -10 -10 -10 -11 -11 -12 -12 -12 -13 -14 -14 -15 -15 -16 -17 -18 -22 -22 -23 -21 -22 -22 -22 -23 -23 -23 -24 -24 -24 -24 -23 -23 -23
-11 -12 -13 -12 -12 -12 -12 -11 -10 -9 -10 -10 -10 -11 -12 -13 -12 -12 -13 -14 -14 -15 -15 -16 -17 -19 -25 -27 -25 -23 -23 -24 -23 -24 -24 -25 -24 -24 -24 -24 -24 -24 -24
-11 -12 -12 -12 -12 -12 -12 -11 -11 -11 -10 -11 -11 -12 -13 -13 -13 -13 -14 -14 -14 -15 -16 -17 -19 -25 -29 -29 -28 -28 -27 -23 -25 -26 -27 -26 -25 -25 -25 -25 -25 -25 -25
-12 -12 -12 -13 -12 -13 -13 -12 -11 -10 -11 -11 -12 -12 -12 -13 -13 -14 -14 -15 -15 -16 -17 -19 -26 -29 -29 -28 -27 -27 -27 -27 -27 -27 -27 -27 -26 -26 -26 -26 -26 -26 -26
-12 -13 -13 -14 -16 -14 -13 -11 -11 -11 -12 -12 -12 -12 -13 -13 -14 -14 -15 -15 -16 -17 -20 -28 -29 -29 -28 -27 -27 -27 -27 -26 -26 -26 -26 -27 -27 -27 -26 -27 -27 -27 -26
-13 -13 -15 -17 -15 -12 -11 -11 -11 -12 -12 -13 -13 -13 -14 -14 -15 -15 -16 -17 -18 -24 -29 -30 -29 -28 -27 -27 -27 -27 -26 -26 -26 -26 -26 -26 -27 -26 -28 -27 -28 -27 -27
Wind_Speed
13 11 8 6 5 4 5 5 5 5 5 5 6 7 8 10 11 12 12 13 14 15 15 17 18 18 17 16 15 14 13 9 8 11 12 14 15 15 18 19 19 19 19
13 12 10 8 8 7 6 7 6 6 5 6 7 8 9 10 11 11 13 14 15 16 17 17 18 17 18 18 15 15 14 13 10 10 12 12 14 14 14 17 17 19 20
17 14 13 11 8 7 7 7 7 6 6 7 8 8 9 10 11 13 13 13 15 16 17 18 19 19 19 19 19 17 15 14 13 11 13 14 13 14 14 12 15 17 16
19 18 14 12 9 8 8 8 7 7 7 8 8 8 9 11 12 13 12 13 14 15 16 18 19 20 20 19 19 19 18 14 14 13 14 15 16 16 14 17 16 13 16
21 17 16 13 11 10 9 9 9 8 8 8 8 8 9 9 10 12 12 12 13 14 15 16 18 18 19 20 20 20 19 16 15 14 15 16 19 20 20 19 17 12 16
22 18 16 15 13 11 11 11 10 10 9 9 8 8 8 8 10 9 11 11 13 13 14 14 14 17 17 19 19 19 20 19 17 16 15 17 19 19 17 17 15 16 12
23 20 18 17 14 13 13 12 12 11 10 10 9 8 7 7 9 9 11 9 10 12 13 12 14 15 15 15 17 18 18 19 20 17 16 18 18 20 17 15 15 11 12
25 23 19 18 16 15 15 14 13 11 10 9 9 8 6 5 7 7 11 8 9 10 11 12 12 14 14 13 13 14 15 17 19 18 17 17 18 18 16 13 13 9 7
26 21 21 19 18 17 16 15 14 12 11 10 9 9 6 4 5 5 9 6 6 7 9 10 11 12 13 14 12 12 13 15 16 17 16 15 15 15 15 13 15 12 8
24 22 21 20 18 18 17 16 14 13 12 11 10 9 6 3 3 3 6 3 4 4 6 7 13 13 15 14 12 11 12 13 14 13 14 15 15 15 15 16 16 14 14
21 22 21 19 18 18 18 16 15 14 13 12 10 8 6 5 3 2 2 2 3 3 3 5 8 12 14 15 14 13 13 13 12 12 12 12 14 15 16 17 16 15 14
22 22 21 19 18 19 18 17 15 15 14 11 9 7 6 4 2 1 1 2 3 3 2 4 9 11 13 13 13 13 13 12 10 10 11 12 13 13 14 14 15 14 14
23 22 21 19 18 18 18 17 15 15 12 11 9 8 6 5 4 2 1 1 3 3 3 7 9 11 12 13 12 12 12 11 10 10 11 11 12 12 12 12 11 13 13
23 22 21 19 18 17 16 15 14 14 12 11 10 9 8 7 7 4 2 1 1 3 6 9 10 12 12 12 11 11 11 11 10 9 10 11 11 11 11 12 12 12 10
22 21 20 18 19 17 16 15 14 14 12 11 10 10 9 9 9 7 6 4 2 3 7 7 6 7 8 9 9 11 9 9 9 10 10 11 11 11 11 11 12 12 10
21 20 19 18 18 17 16 15 19 15 13 13 11 8 8 9 7 6 5 4 4 5 4 4 6 7 8 9 9 9 9 9 10 9 10 10 11 11 13 11 11 11 11
19 18 18 17 18 18 17 15 13 17 14 13 11 9 8 7 7 6 6 6 6 7 3 4 5 7 8 8 9 8 8 10 11 9 10 11 12 11 12 11 11 11 11
17 19 17 19 19 18 16 15 14 13 14 13 12 10 10 8 8 8 7 11 9 7 5 5 6 7 8 8 8 8 8 8 9 10 10 11 12 11 11 11 11 12 12
18 17 17 18 18 17 16 15 14 13 12 11 11 12 11 11 11 10 9 11 9 9 7 6 7 7 8 8 9 9 11 9 12 10 8 10 11 11 10 11 11 13 13
16 14 15 17 18 18 16 16 16 15 14 13 12 11 12 11 12 12 12 13 13 10 9 7 8 10 10 10 9 9 7 8 8 8 9 9 10 11 10 11 11 12 11
17 15 15 16 16 17 17 17 16 16 14 13 13 14 15 12 12 14 14 14 14 13 13 11 11 14 13 12 9 7 8 8 9 10 9 10 12 10 10 10 11 11 12
18 16 15 16 15 16 16 16 15 13 13 13 13 16 13 13 11 15 19 16 17 16 15 15 14 14 13 12 11 10 10 11 9 10 10 12 11 10 11 11 11 11 11
17 16 16 15 15 15 16 15 15 14 11 11 12 11 12 13 15 16 17 17 15 16 16 17 17 16 16 14 12 12 11 10 11 13 13 12 11 10 11 10 11 11 10
17 16 15 15 14 14 14 14 12 11 10 10 12 12 12 14 15 16 16 15 16 17 18 18 17 15 14 13 13 13 13 13 13 14 15 14 13 12 12 11 10 10 11
17 16 15 14 14 14 13 10 9 9 10 11 13 14 14 14 14 15 15 16 17 18 18 17 15 13 12 12 13 13 13 13 14 15 15 16 15 15 14 10 10 10 10
15 14 14 13 13 12 10 10 11 11 11 12 13 13 12 13 14 15 16 17 17 17 16 14 13 12 12 13 13 13 13 14 14 14 15 16 15 13 10 9 9 9 9
Wind_Direction
195 191 180 173 170 175 179 167 145 124 108 95 81 71 67 65 64 60 59 59 55 51 47 40 39 35 29 27 25 26 23 26 5 348 0 8 12 27 24 28 32 34 37
199 191 187 192 189 186 171 161 152 139 124 107 93 84 77 73 68 67 61 57 54 51 49 46 43 38 39 35 29 26 28 25 25 7 2 12 12 16 21 21 28 39 41
203 196 196 192 183 175 165 159 149 137 125 116 103 91 86 81 74 68 63 58 53 50 47 44 42 40 38 34 32 32 31 21 24 18 10 8 12 14 17 11 10 27 29
199 195 193 186 177 173 166 156 147 137 127 117 107 100 91 85 77 70 64 61 57 52 49 45 41 39 37 36 30 30 30 30 24 25 17 10 10 12 18 12 8 352 5
194 187 191 187 179 176 165 156 145 135 128 121 112 106 99 90 86 74 63 61 58 53 49 46 41 39 37 34 32 30 31 31 30 25 21 15 12 12 12 12 5 18 345
181 188 185 186 181 172 163 155 148 141 134 123 117 108 102 98 92 80 77 56 56 54 48 45 34 35 32 33 30 31 29 33 34 30 21 18 11 9 6 5 5 12 7
188 181 181 184 178 171 164 156 151 146 143 140 133 124 114 104 91 79 78 67 60 51 48 44 35 31 36 32 21 25 24 30 35 31 23 19 12 11 9 2 360 1 7
180 183 183 182 176 172 165 163 159 154 149 147 143 136 132 110 90 77 77 72 62 54 53 46 38 30 28 35 27 24 24 21 28 28 24 18 14 13 14 358 357 350 343
183 187 181 181 176 174 170 168 164 161 157 155 149 142 136 125 95 80 89 80 69 60 43 50 40 27 29 27 25 21 19 22 18 19 19 17 15 12 11 20 21 18 3
189 181 180 179 178 174 173 170 169 167 168 168 163 161 159 140 121 105 102 92 92 62 54 32 12 17 19 20 22 16 9 10 13 13 10 8 10 14 19 24 28 23 14
180 178 179 180 178 182 180 178 172 175 176 180 178 175 171 171 149 147 140 121 88 84 64 23 6 8 6 5 7 5 6 3 359 2 1 3 6 9 10 16 19 23 24
177 177 178 178 181 184 183 180 181 187 184 185 186 187 191 195 211 153 102 70 63 77 57 15 353 2 358 358 356 357 357 4 355 354 356 355 358 360 0 2 1 5 5
175 176 177 179 184 186 187 182 183 186 188 191 192 192 194 189 205 222 152 69 39 57 1 0 359 356 354 352 351 352 351 355 357 355 352 348 348 346 350 351 352 353 352
175 176 178 179 181 184 185 190 191 192 195 196 196 193 193 185 184 190 208 203 330 354 356 358 355 356 353 354 355 352 352 353 355 350 345 342 343 346 344 345 344 345 346
176 178 180 183 185 187 190 196 199 204 202 205 210 212 213 199 203 202 197 200 213 337 344 1 355 350 346 346 347 346 350 354 349 346 342 342 342 342 337 341 339 341 338
178 181 184 185 185 189 192 199 202 207 210 216 223 228 220 220 237 230 235 237 274 321 343 345 339 343 341 339 338 338 338 342 338 343 341 339 338 340 333 341 337 337 334
184 185 190 187 189 191 195 199 204 213 217 218 223 224 226 239 237 241 258 267 293 311 304 311 325 331 334 329 329 329 328 323 337 336 335 333 334 338 340 336 336 333 332
186 193 194 190 193 196 198 199 200 207 215 219 219 224 229 241 238 233 231 258 275 280 264 287 304 317 322 322 319 317 316 322 325 327 329 329 331 336 335 332 333 327 327
199 202 204 205 208 209 207 205 205 207 204 207 218 227 233 241 242 241 234 230 243 253 260 280 298 310 315 315 309 311 313 313 318 328 326 328 327 331 328 327 326 325 335
192 198 203 204 204 205 206 207 214 217 215 216 220 225 233 229 228 232 234 238 250 244 251 265 285 303 306 307 304 306 312 309 312 318 315 321 321 326 323 323 322 322 321
197 197 198 201 205 209 214 219 225 229 228 227 229 227 234 225 226 230 236 244 241 245 258 273 288 300 305 305 303 295 301 303 304 306 310 312 315 322 318 318 317 317 316
203 204 203 206 211 220 228 231 231 227 228 227 225 238 242 233 228 232 241 242 246 256 266 283 292 295 295 293 289 294 299 302 302 304 306 310 313 313 313 313 314 313 316
205 207 210 216 226 234 236 235 233 230 219 220 219 222 231 235 234 237 237 247 255 263 277 288 293 295 296 296 295 297 296 291 294 301 306 307 308 306 307 308 306 310 306
207 213 220 228 233 233 226 223 220 215 212 212 217 227 236 237 240 240 247 252 265 276 286 290 291 291 290 291 296 298 297 299 305 307 311 311 310 307 301 299 300 300 305
212 217 224 231 227 219 215 204 204 208 212 222 226 231 242 244 243 246 254 266 274 281 286 288 288 289 288 289 292 294 298 300 304 307 309 311 309 307 304 295 295 299 302
214 222 227 221 214 208 203 204 210 217 222 228 234 242 243 242 249 258 267 274 278 280 283 283 284 286 290 292 295 297 300 303 306 309 309 307 306 301 293 286 289 295 300
Height
1499 1501 1502 1504 1505 1505 1505 1505 1505 1506 1505 1505 1505 1504 1503 1502 1500 1499 1497 1495 1493 1491 1489 1486 1483 1480 1478 1474 1471 1468 1466 1463 1462 1458 1454 1450 1446 1443 1440 1435 1431 1429 1423
1497 1498 1500 1502 1503 1503 1503 1504 1504 1505 1505 1505 1504 1504 1503 1502 1501 1500 1499 1497 1495 1492 1490 1487 1484 1481 1478 1475 1473 1470 1467 1464 1462 1460 1456 1452 1449 1446 1443 1439 1435 1429 1426
1494 1497 1499 1500 1501 1501 1502 1503 1503 1504 1504 1504 1505 1504 1504 1504 1503 1502 1500 1499 1497 1494 1492 1489 1486 1483 1480 1477 1474 1471 1468 1467 1463 1460 1457 1453 1450 1445 1442 1440 1437 1434 1431
1490 1494 1497 1498 1499 1500 1501 1502 1503 1504 1504 1505 1505 1505 1505 1505 1505 1504 1503 1501 1498 1496 1494 1491 1489 1486 1483 1480 1476 1473 1469 1468 1465 1463 1460 1456 1451 1448 1445 1442 1439 1436 1433
1488 1491 1494 1496 1497 1498 1500 1501 1502 1503 1504 1505 1506 1506 1506 1506 1506 1505 1504 1502 1500 1498 1496 1494 1491 1489 1486 1482 1479 1475 1472 1469 1467 1466 1462 1459 1454 1449 1446 1444 1443 1439 1435
1484 1489 1491 1494 1495 1497 1498 1500 1502 1503 1504 1506 1507 1507 1507 1507 1506 1506 1505 1504 1502 1500 1498 1496 1494 1491 1487 1484 1481 1478 1475 1471 1468 1467 1465 1461 1457 1453 1450 1448 1446 1441 1439
1480 1486 1489 1492 1493 1495 1497 1500 1502 1503 1505 1507 1508 1509 1508 1508 1507 1506 1505 1506 1504 1502 1500 1499 1496 1492 1489 1488 1484 1481 1477 1474 1470 1469 1466 1462 1459 1455 1452 1451 1448 1447 1443
1478 1482 1486 1488 1490 1493 1496 1499 1501 1503 1505 1507 1508 1509 1508 1507 1506 1506 1505 1507 1506 1503 1501 1500 1497 1493 1490 1488 1487 1484 1479 1476 1472 1469 1467 1464 1460 1456 1453 1453 1451 1448 1447
1474 1479 1483 1486 1488 1491 1495 1497 1500 1502 1505 1506 1507 1507 1507 1506 1505 1505 1506 1507 1506 1504 1501 1499 1498 1494 1491 1488 1488 1485 1481 1477 1474 1471 1468 1465 1462 1458 1454 1451 1449 1448 1446
1471 1476 1480 1484 1487 1490 1493 1496 1499 1502 1503 1503 1504 1505 1505 1505 1505 1505 1505 1506 1505 1504 1503 1501 1496 1494 1491 1489 1487 1484 1481 1478 1475 1472 1469 1466 1463 1459 1456 1452 1449 1448 1446
1470 1474 1478 1482 1485 1488 1491 1494 1497 1499 1500 1501 1502 1503 1504 1504 1503 1503 1503 1503 1503 1503 1502 1501 1497 1493 1491 1488 1486 1483 1481 1478 1476 1474 1472 1468 1465 1461 1457 1454 1451 1449 1447
1468 1472 1476 1481 1483 1486 1490 1493 1496 1497 1498 1500 1501 1501 1502 1502 1502 1502 1502 1501 1501 1501 1500 1498 1495 1493 1491 1488 1485 1483 1480 1478 1477 1475 1473 1470 1466 1462 1460 1456 1452 1450 1447
1466 1471 1475 1478 1481 1485 1488 1491 1494 1495 1497 1498 1499 1500 1500 1500 1500 1500 1500 1500 1499 1499 1498 1496 1494 1492 1490 1487 1485 1482 1479 1477 1476 1475 1472 1470 1466 1463 1461 1458 1456 1453 1450
1465 1469 1473 1476 1480 1483 1487 1490 1492 1494 1496 1497 1498 1498 1498 1499 1500 1499 1498 1498 1498 1497 1496 1494 1493 1491 1488 1486 1484 1481 1479 1476 1474 1473 1471 1468 1466 1463 1461 1458 1456 1453 1452
1463 1467 1471 1475 1477 1481 1485 1488 1490 1491 1494 1495 1495 1495 1495 1497 1497 1497 1498 1498 1497 1497 1495 1494 1493 1492 1490 1488 1485 1481 1479 1476 1474 1472 1469 1467 1464 1462 1460 1457 1455 1453 1451
1461 1465 1468 1472 1475 1479 1482 1484 1485 1487 1489 1491 1492 1492 1493 1494 1494 1495 1495 1495 1495 1495 1494 1493 1492 1491 1489 1487 1484 1482 1479 1476 1472 1471 1469 1466 1463 1460 1458 1457 1455 1453 1450
1458 1462 1465 1469 1472 1475 1479 1481 1483 1484 1486 1488 1489 1490 1490 1492 1492 1492 1492 1492 1492 1492 1493 1492 1490 1489 1487 1485 1482 1480 1477 1473 1470 1469 1467 1464 1461 1459 1457 1456 1453 1451 1448
1457 1459 1462 1465 1469 1471 1474 1478 1480 1481 1483 1484 1486 1487 1488 1488 1488 1489 1490 1490 1490 1489 1490 1490 1488 1486 1484 1482 1479 1477 1474 1472 1469 1466 1465 1461 1459 1457 1456 1454 1452 1448 1446
1453 1456 1459 1462 1465 1468 1471 1474 1477 1479 1481 1482 1482 1483 1484 1485 1485 1486 1487 1488 1489 1488 1487 1486 1484 1482 1480 1478 1475 1472 1470 1468 1465 1463 1462 1459 1457 1455 1454 1451 1449 1446 1443
1452 1455 1458 1460 1463 1465 1468 1471 1473 1475 1477 1479 1479 1480 1480 1481 1482 1482 1483 1484 1484 1484 1483 1482 1480 1478 1476 1473 1471 1469 1468 1467 1464 1462 1460 1457 1455 1452 1451 1449 1447 1444 1443
1450 1453 1456 1458 1461 1463 1466 1468 1470 1471 1473 1474 1476 1476 1477 1478 1479 1479 1479 1479 1479 1478 1477 1477 1475 1472 1470 1468 1467 1466 1464 1462 1460 1458 1456 1454 1451 1449 1449 1447 1445 1443 1440
1449 1451 1454 1457 1459 1461 1463 1465 1466 1467 1469 1470 1472 1471 1472 1473 1475 1475 1474 1474 1473 1473 1472 1471 1470 1468 1466 1464 1463 1461 1459 1457 1456 1455 1453 1450 1448 1448 1446 1444 1442 1440 1438
1447 1450 1452 1454 1456 1458 1459 1460 1461 1463 1465 1466 1468 1467 1467 1469 1469 1469 1469 1468 1468 1468 1467 1466 1464 1462 1460 1459 1458 1456 1455 1454 1452 1450 1448 1446 1445 1444 1441 1440 1439 1437 1435
1445 1448 1450 1451 1453 1454 1455 1456 1458 1460 1462 1463 1463 1464 1464 1464 1464 1464 1464 1464 1463 1463 1461 1460 1459 1458 1456 1455 1453 1452 1451 1449 1447 1445 1443 1442 1440 1439 1437 1436 1435 1433 1431
1443 1445 1446 1448 1449 1450 1451 1454 1455 1457 1458 1459 1460 1459 1459 1459 1459 1459 1459 1459 1458 1457 1456 1454 1453 1452 1451 1450 1449 1448 1446 1445 1443 1441 1439 1437 1435 1433 1431 1431 1430 1429 1428
1440 1442 1443 1444 1445 1447 1449 1451 1452 1453 1454 1455 1455 1455 1455 1455 1455 1455 1454 1454 1453 1452 1450 1449 1448 1448 1447 1446 1445 1443 1442 1441 1439 1437 1435 1433 1431 1429 1428 1428 1427 1426 1426